[[{"header":{"parameterUnit":"m.s-1","parameterCategory":1,"la1":30.2991,"la2":30.254,"lo1":-89.0895,"lo2":-89.0444,"dy":0.0017,"dx":0.0017,"nx":28,"ny":28,"refTime":"2023-09-24T03:00:00:Z","depth":0,"parameterNumber":2,"parameterNumberName":"U-component_of_WINDS"},"data":[0,0,0,0,0,0,0,0,0,0,0,0,0,0,0,0,0,0,0,0,0,0,0,0,0,0,0,0,0,0,0,0,0,0,0,0,0,0,0,0,0,0,0,0,0,0,0,0,0,0,0,0,0,0,0,0,0,0,1.9947,1.9948,0,2.0013,2.0014,2.0015,2.0006,2.0005,2.0004,2.0003,2.0068,2.0071,2.0074,0,0,0,0,0,0,0,0,0,0,0,0,0,1.9811,1.9813,1.9947,1.9948,1.9949,2.0013,2.0014,2.0015,2.0006,2.0005,2.0004,2.0003,2.0067,2.0071,2.0074,0,0,0,0,0,0,0,0,0,0,0,0,0,1.9873,1.9814,1.9947,1.9953,1.9954,2.0013,2.0014,2.0015,2.0007,2.0005,2.0004,2.0002,2.0066,2.007,2.0074,2.0131,0,0,2.0087,2.0089,0,0,0,0,0,0,0,0,1.9869,1.9878,1.9951,1.9952,1.9954,2.0,1.999,2.0054,2.0007,1.9987,2.0003,2.0001,2.0047,2.0052,2.0068,2.0135,2.0137,2.0087,2.009,2.0091,2.0093,0,0,0,0,0,0,0,1.9865,1.9875,1.9973,1.9952,1.9954,1.995,1.9957,2.0002,2.0025,1.9988,1.9988,1.9996,2.0047,2.0064,2.0069,2.0138,2.0087,2.0091,2.0093,2.0095,2.0251,2.0253,0,0,0,0,0,0,1.986,1.9871,1.9971,1.9975,1.9907,1.9954,1.9962,1.9987,2.0024,2.0028,1.9997,1.9995,2.0058,2.0065,2.0072,2.0138,2.0091,2.0095,2.0098,2.025,2.0252,2.0254,0,0,0,0,0,0,1.9857,1.9869,1.9969,1.9923,1.9936,1.9958,1.9986,1.9989,2.0006,2.0031,2.0035,2.001,2.0057,2.0066,2.0116,2.0141,2.0097,2.0101,2.0248,2.025,2.0253,2.0274,0,0,0,0,0,0,1.9853,1.9868,1.9891,1.9924,1.9938,2.0013,1.9988,1.9991,2.0013,2.0011,2.0044,2.0048,2.0056,2.011,2.012,2.0145,2.0104,2.0246,2.0249,2.0252,2.0271,2.0277,2.0282,0,0,0,0,0,1.9848,1.9894,1.9892,1.9904,1.9967,2.0014,2.0022,2.0031,2.0015,2.0037,2.0053,2.0047,2.0137,2.0115,2.0127,2.0153,2.0244,2.0248,2.0252,2.0268,2.0276,2.0282,0,0,0,0,0,0,1.9863,1.9899,1.9896,1.9955,1.9982,2.0013,2.0041,2.0039,2.007,2.0067,2.0076,2.0084,2.0133,2.0149,2.0124,2.0209,2.0188,2.0194,2.0197,2.0204,2.0209,2.0203,2.0107,0,0,0,0,0,1.9873,1.9909,1.9938,1.9987,2.0001,2.0019,2.004,2.0044,2.0072,2.0083,2.0102,2.0129,2.0162,2.0184,2.0217,2.0274,2.0279,2.0298,2.0303,2.0307,2.0312,2.034,2.0347,2.0266,2.0266,2.0266,0,0,1.9895,1.9918,1.9941,1.9991,2.0012,2.0047,2.0028,2.0067,2.0093,2.0089,2.0136,2.0152,2.0181,2.0234,2.0258,2.0248,2.0336,2.0312,2.0316,2.0318,2.0344,2.0352,2.0359,2.0269,2.0268,2.0268,0,0,1.9951,1.9974,2.0015,2.0037,2.0069,2.0081,2.0091,2.0122,2.0132,2.018,2.0176,2.0207,2.0266,2.0286,2.0304,2.0366,2.0361,2.0377,2.0404,2.0431,2.0437,2.0443,2.0462,2.0469,2.0382,2.0382,2.0382,0,1.9972,2.0027,2.0037,2.0076,2.0096,2.0094,2.0135,2.0155,2.0196,2.021,2.0199,2.0271,2.0291,2.0347,2.0362,2.0378,2.0387,2.0372,2.0436,2.0442,2.0447,2.0465,2.0473,2.0383,2.0383,2.0383,2.0383,0,2.005,2.0088,2.0118,2.0157,2.0182,2.0221,2.0235,2.0259,2.0261,2.0273,2.0321,2.0345,2.0381,2.0395,2.0398,2.0451,2.0443,2.0434,2.0413,2.0456,2.0473,2.0481,2.0386,2.0385,2.0385,2.0384,0,0,2.0117,2.0161,2.0171,2.0188,2.0223,2.0251,2.029,2.0326,2.0344,2.0372,2.0403,2.0452,2.0443,2.0464,2.0469,2.0493,2.0537,2.048,2.0481,2.0487,2.0593,2.0597,2.0605,2.0534,2.0536,2.0537,2.0589,0,2.0174,2.0243,2.0253,2.0313,2.0346,2.0344,2.0377,2.0401,2.0413,2.0442,2.0455,2.0489,2.0476,2.0488,2.0512,2.0526,2.0557,2.0523,2.056,2.0562,2.055,2.0615,2.0621,2.0669,2.0596,2.0597,2.0598,0,2.025,2.028,2.0343,2.0371,2.0385,2.0415,2.0447,2.0476,2.0502,2.0509,2.0531,2.0533,2.0571,2.0549,2.06,2.0576,2.0593,2.0602,2.0604,2.0606,2.0581,2.0616,2.0685,2.0691,2.061,2.0609,2.0608,0,2.0288,2.0345,2.0389,2.0404,2.0438,2.0459,2.0474,2.0499,2.0519,2.0547,2.0559,2.0592,2.0608,2.0632,2.0642,2.0626,2.0691,2.0671,2.0696,2.0695,2.0708,2.0706,2.0777,2.0723,2.0723,2.0722,2.0722,0,2.035,2.0388,2.0406,2.0433,2.0475,2.0485,2.0526,2.054,2.0562,2.059,2.0591,2.0618,2.063,2.0658,2.0665,2.0704,2.0713,2.0718,2.0719,2.0716,2.0715,2.0725,2.0721,2.0724,2.0724,2.0724,2.0723,0,2.0399,2.0413,2.0461,2.0489,2.0497,2.0526,2.055,2.0575,2.0587,2.0623,2.0632,2.065,2.0683,2.0695,2.0735,2.074,2.0784,2.0784,2.0775,2.0775,2.0798,2.0794,2.0876,2.0885,2.0827,2.0827,2.0828,0,2.0435,2.0465,2.0496,2.0515,2.0531,2.0562,2.0582,2.0593,2.0613,2.0644,2.0665,2.0698,2.0724,2.0776,2.0792,2.0822,2.0821,2.0847,2.0825,2.0821,2.0817,2.0815,2.0816,2.085,2.0851,2.0851,2.0852,0,2.0498,2.0503,2.0533,2.0564,2.0588,2.0613,2.0637,2.0653,2.0666,2.0689,2.0723,2.0743,2.0783,2.0814,2.0845,2.0859,2.0857,2.0859,2.0866,2.0862,2.0854,2.0856,2.0783,2.0856,2.0856,2.0856,2.0855,2.0855,2.054,2.0565,2.059,2.0622,2.0641,2.0663,2.0687,2.0702,2.073,2.0764,2.0768,2.0803,2.0827,2.0867,2.0883,2.0909,2.0902,2.0913,2.0915,2.0917,2.0917,2.0852,2.0915,2.0915,2.0915,2.0915,2.0915,0,2.06,2.0616,2.0645,2.0679,2.0703,2.07,2.0726,2.0746,2.0777,2.08,2.0826,2.0863,2.0893,2.0911,2.0941,2.0958,2.0958,2.0965,2.0963,2.0965,2.0923,2.0913,2.0965,2.0965,2.0965,2.0965,2.0965,2.0965,2.0634,2.0674,2.0682,2.0731,2.0747,2.0781,2.0796,2.0816,2.0834,2.0875,2.09,2.0912,2.0932,2.0963,2.0989,2.0994,2.1003,2.1011,2.1015,2.0974,2.0969,2.0964,2.0954,2.1014,2.1014,2.1055,2.1055,2.1055]},{"header":{"parameterUnit":"m.s-1","parameterCategory":1,"la1":30.2991,"la2":30.254,"lo1":-89.0895,"lo2":-89.0444,"dy":0.0017,"dx":0.0017,"nx":28,"ny":28,"refTime":"2023-09-24T03:00:00:Z","depth":0,"parameterNumber":3,"parameterNumberName":"V-component_of_WINDS"},"data":[0,0,0,0,0,0,0,0,0,0,0,0,0,0,0,0,0,0,0,0,0,0,0,0,0,0,0,0,0,0,0,0,0,0,0,0,0,0,0,0,0,0,0,0,0,0,0,0,0,0,0,0,0,0,0,0,0,0,1.8269,1.8269,0,1.8287,1.8287,1.8288,1.8263,1.8262,1.8261,1.8261,1.8279,1.828,1.8282,0,0,0,0,0,0,0,0,0,0,0,0,0,1.8212,1.8213,1.8269,1.8269,1.827,1.8287,1.8287,1.8288,1.8263,1.8262,1.8261,1.826,1.8279,1.828,1.8282,0,0,0,0,0,0,0,0,0,0,0,0,0,1.8234,1.8214,1.8269,1.826,1.8259,1.8287,1.8287,1.8288,1.8264,1.8262,1.8261,1.826,1.8278,1.828,1.8282,1.832,0,0,1.8288,1.8289,0,0,0,0,0,0,0,0,1.8233,1.8236,1.8261,1.826,1.826,1.8272,1.8274,1.8299,1.8264,1.8262,1.8261,1.8259,1.8278,1.8279,1.8286,1.8321,1.8322,1.8288,1.8289,1.829,1.8291,0,0,0,0,0,0,0,1.8231,1.8235,1.8276,1.8261,1.826,1.8254,1.8256,1.8279,1.8277,1.8262,1.826,1.8263,1.8277,1.8284,1.8286,1.8322,1.8288,1.829,1.8291,1.8292,1.8387,1.8388,0,0,0,0,0,0,1.8231,1.8234,1.8276,1.8277,1.8243,1.8256,1.8258,1.8269,1.8276,1.8276,1.8264,1.8261,1.8281,1.8284,1.8287,1.833,1.829,1.8292,1.8293,1.8386,1.8387,1.8389,0,0,0,0,0,0,1.823,1.8235,1.8275,1.8255,1.826,1.8258,1.8271,1.827,1.8277,1.8278,1.8277,1.8271,1.828,1.8284,1.8311,1.833,1.8293,1.8295,1.8384,1.8386,1.8388,1.8419,0,0,0,0,0,0,1.8229,1.8235,1.825,1.8256,1.8261,1.83,1.8272,1.8271,1.828,1.8278,1.8285,1.8285,1.828,1.8309,1.8313,1.8332,1.8296,1.8382,1.8385,1.8387,1.8416,1.8421,1.8426,0,0,0,0,0,1.8227,1.8258,1.8251,1.8256,1.828,1.8301,1.8304,1.8298,1.8282,1.8297,1.8297,1.8284,1.8328,1.8312,1.8317,1.8337,1.8381,1.8384,1.8387,1.8413,1.842,1.8426,0,0,0,0,0,0,1.8256,1.8259,1.8251,1.8286,1.8293,1.8297,1.8316,1.8305,1.8318,1.8315,1.8306,1.8308,1.8337,1.834,1.8322,1.8373,1.8352,1.8356,1.837,1.8376,1.8381,1.838,1.8298,0,0,0,0,0,1.8266,1.8284,1.8286,1.8316,1.832,1.8317,1.8327,1.8321,1.8328,1.8331,1.8334,1.8342,1.8356,1.8367,1.8381,1.8416,1.8416,1.8432,1.8437,1.8442,1.8445,1.8462,1.8468,1.8399,1.8399,1.8399,0,0,1.8288,1.8292,1.8304,1.8322,1.8327,1.8345,1.832,1.8341,1.8353,1.8335,1.836,1.8362,1.837,1.8401,1.8415,1.8404,1.8464,1.8446,1.8449,1.845,1.8466,1.8472,1.8478,1.8401,1.8401,1.84,0,0,1.8336,1.8342,1.8367,1.8372,1.838,1.8377,1.8383,1.8388,1.8389,1.8414,1.84,1.8415,1.8442,1.8447,1.8453,1.8501,1.849,1.8506,1.8533,1.8549,1.8555,1.8559,1.8575,1.8581,1.851,1.851,1.851,0,1.8363,1.8389,1.8381,1.8401,1.8409,1.8392,1.8416,1.8422,1.8434,1.8439,1.8427,1.8459,1.8463,1.8494,1.8506,1.8512,1.8517,1.8505,1.8555,1.8559,1.8564,1.8578,1.8584,1.8512,1.8512,1.8511,1.8511,0,1.8419,1.8437,1.8456,1.8467,1.8477,1.85,1.8494,1.8505,1.8498,1.8496,1.8521,1.8526,1.8539,1.8546,1.854,1.8576,1.8569,1.8556,1.8534,1.8572,1.8585,1.8591,1.8515,1.8514,1.8513,1.8513,0,0,1.8487,1.8492,1.8499,1.8503,1.8509,1.8523,1.8544,1.8557,1.8565,1.8574,1.859,1.8612,1.86,1.8607,1.8601,1.8615,1.8651,1.86,1.86,1.8608,1.8688,1.8697,1.8703,1.8643,1.8644,1.8645,1.8687,0,1.8534,1.8569,1.8562,1.8597,1.8612,1.8595,1.8613,1.8619,1.8618,1.863,1.8629,1.8644,1.8627,1.8631,1.8644,1.8643,1.8666,1.8641,1.8657,1.8658,1.8654,1.8711,1.872,1.876,1.8692,1.8693,1.8694,0,1.8593,1.8603,1.8639,1.864,1.8647,1.8663,1.8673,1.8685,1.8691,1.8689,1.8696,1.8686,1.8706,1.8684,1.871,1.8693,1.8699,1.87,1.8701,1.8701,1.8677,1.8711,1.8772,1.8778,1.8702,1.8702,1.8701,0,1.8637,1.8659,1.8682,1.8687,1.869,1.8701,1.8703,1.8707,1.8715,1.8723,1.8728,1.8739,1.8745,1.8753,1.8747,1.8732,1.8773,1.8752,1.8771,1.8771,1.8779,1.8779,1.8841,1.8786,1.8786,1.8786,1.8786,0,1.8689,1.8711,1.8702,1.8716,1.874,1.8731,1.8754,1.8754,1.8758,1.8771,1.8758,1.8771,1.8762,1.8774,1.8769,1.879,1.8793,1.8791,1.879,1.8792,1.8792,1.8795,1.8792,1.8787,1.8787,1.8787,1.8786,0,1.8742,1.8736,1.876,1.8761,1.8762,1.8779,1.8779,1.8792,1.8789,1.8806,1.881,1.8805,1.8818,1.8813,1.8827,1.8824,1.885,1.8846,1.8848,1.8846,1.8865,1.8863,1.8931,1.8938,1.888,1.888,1.8881,0,1.8775,1.8791,1.8792,1.88,1.8803,1.8816,1.8823,1.8814,1.8822,1.8828,1.8839,1.8851,1.886,1.8882,1.888,1.889,1.8885,1.8908,1.8886,1.8887,1.8883,1.8881,1.8882,1.8912,1.8912,1.8913,1.8913,0,1.8833,1.8829,1.8839,1.8848,1.8857,1.8864,1.887,1.8877,1.8868,1.8877,1.889,1.8897,1.891,1.8922,1.893,1.8932,1.8921,1.892,1.8925,1.8927,1.8927,1.8925,1.8858,1.8918,1.8918,1.8918,1.8917,1.8917,1.8876,1.8888,1.8891,1.8902,1.8905,1.891,1.8922,1.892,1.893,1.894,1.8934,1.8949,1.8952,1.8962,1.8965,1.8976,1.8967,1.8974,1.8976,1.8977,1.8979,1.8926,1.8978,1.8978,1.8977,1.8977,1.8977,0,1.8932,1.8932,1.8942,1.895,1.8959,1.8947,1.8952,1.896,1.8973,1.8977,1.8985,1.8999,1.9009,1.9008,1.9017,1.9026,1.9021,1.9029,1.9027,1.9027,1.8987,1.8981,1.9032,1.9032,1.9032,1.9032,1.9032,1.9032,1.8962,1.8982,1.8978,1.8999,1.8999,1.9013,1.9016,1.902,1.9023,1.9039,1.9047,1.9046,1.9047,1.9056,1.9065,1.9064,1.9067,1.9076,1.9074,1.9036,1.903,1.9025,1.902,1.9078,1.9078,1.9112,1.9113,1.9113]}]]